World > North America > United States > New York

Hourly St. Lawrence Park, NY Regional Weather

Feedback E-mail the Weather

Latest News

St. Lawrence Park, NY Weather Maps

°F °C°F °C
Saint Lawrence Park Weather Map
UTC Time: 5/21/2022, 03:45
Your Time:

St. Lawrence Park, NY Regional Weather

Expires:202205210300;;303378
ASUS41 KBTV 210230
RWRBTV
VERMONT REGIONAL WEATHER ROUNDUP
NATIONAL WEATHER SERVICE BURLINGTON VT
1000 PM EDT FRI MAY 20 2022

NOTE: "FAIR" INDICATES FEW OR NO CLOUDS BELOW 12,000 FEET WITH NO 
SIGNIFICANT WEATHER AND/OR OBSTRUCTIONS TO VISIBILITY.

* THESE REPORTS ARE NOT UNDER NWS QUALITY CONTROL AND/OR DO NOT
  REPORT WEATHER SUCH AS PRECIPITATION AND FOG.


NYZ007-026>031-035-052-083-087-210300-
_____NORTHERN NEW YORK_
  
CITY           SKY/WX    TMP DP  RH WIND       PRES   REMARKS
PLATTSBURGH    MOCLDY    73  57  57 S16G24    29.78R                  
SARANAC LAKE   MOCLDY    68  58  70 S12G21    29.80F                  
MASSENA        MOCLDY    71  59  65 S6        29.73R                  
OGDENSBURG*    FAIR      75  61  60 S14G21    29.74R                  
POTSDAM*       MOCLDY    73  59  60 S9        29.76R                  
WATERTOWN      CLEAR     74  60  61 SW9       29.78R                  
FT DRUM        CLEAR     73  61  66 S14       29.78R                  
ALBANY         MOCLDY    69  61  75 S17G28    29.91R                  
GLENS FALLS    MOCLDY    69  60  73 S17G23    29.89R                  

$$

SKY/WX - Weather  TMP - Temperature  DP - Dew Point  RH - Humidity
WIND - Wind Direction/Speed PRES - Barometric Pressure VSB - Visibility
WCI - Wind Chill Index E13G22 Wind - East Wind 13 mph/Gusts of 22 mph

Trending Headlines

St. Lawrence Park Radar Loop



St. Lawrence Park Quick Facts


National Two Day Weather Forecast


E-mail the St. Lawrence Park Weather Forecast

Voice your opinion or tell us about page issues...